Location: Cactus School
(34.5700°N, 118.0931°W)
Time: 08:13:53
(UTC-07:00)

S-56A Canister/Altair - Pass Details

Date: 16 April 2024
Orbit: 638 x 2488 km, 38.9° (Epoch: 29 May)

Event Time Altitude Azimuth Distance (km) Brightness Sun altitude
Rises 15:50:33 0° 184° (S) 2,986 10.8 42.8°
Reaches altitude 10° 15:54:32 10° 149° (SSE) 2,255 9.9 42.1°
Maximum altitude 15:56:06 11° 131° (SE) 2,261 9.8 41.8°
Drops below altitude 10° 15:57:47 10° 113° (ESE) 2,464 9.9 41.4°
Sets 16:02:51 0° 82° (E) 3,815 10.6 40.4°
